Time,TemperatureF,DewpointF,PressureIn,WindDirection,WindDirectionDegrees,WindSpeedMPH,WindSpeedGustMPH,Humidity,HourlyPrecipIn,Conditions,Clouds,dailyrainin,SoftwareType,DateUTC
2013-08-12 00:00:00,69.0,66.0,30.06,North,0,0.0,0.0,90,0.00,,,0.00,,2013-08-12 04:00:00,
2013-08-12 00:02:00,69.0,66.0,30.06,North,0,0.0,0.0,90,0.00,,,0.00,,2013-08-12 04:02:00,
2013-08-12 00:12:00,69.0,66.0,30.05,North,0,0.0,0.0,89,0.00,,,0.00,,2013-08-12 04:12:00,
2013-08-12 00:22:00,69.0,66.0,30.05,North,0,0.0,0.0,89,0.00,,,0.00,,2013-08-12 04:22:00,
2013-08-12 00:33:00,68.0,65.0,30.05,North,0,0.0,0.0,89,0.00,,,0.00,,2013-08-12 04:33:00,
2013-08-12 00:43:00,68.0,65.0,30.05,North,0,0.0,0.0,89,0.00,,,0.00,,2013-08-12 04:43:00,
2013-08-12 01:02:00,68.0,64.0,30.05,North,0,0.0,0.0,88,0.00,,,0.00,,2013-08-12 05:02:00,
2013-08-12 01:11:00,67.0,63.0,30.06,North,0,0.0,0.0,88,0.00,,,0.00,,2013-08-12 05:11:00,
2013-08-12 01:32:00,67.0,63.0,30.06,North,0,0.0,0.0,88,0.00,,,0.00,,2013-08-12 05:32:00,
2013-08-12 01:43:00,67.0,63.0,30.06,North,0,0.0,0.0,87,0.00,,,0.00,,2013-08-12 05:43:00,
2013-08-12 01:52:00,67.0,63.0,30.06,North,0,0.0,0.0,87,0.00,,,0.00,,2013-08-12 05:52:00,
2013-08-12 02:02:00,67.0,63.0,30.06,North,0,0.0,0.0,87,0.00,,,0.00,,2013-08-12 06:02:00,
2013-08-12 02:11:00,67.0,63.0,30.05,North,0,0.0,0.0,87,0.00,,,0.00,,2013-08-12 06:11:00,
2013-08-12 02:32:00,67.0,63.0,30.05,North,0,0.0,0.0,86,0.00,,,0.00,,2013-08-12 06:32:00,
2013-08-12 02:42:00,67.0,63.0,30.05,North,0,0.0,0.0,86,0.00,,,0.00,,2013-08-12 06:42:00,
2013-08-12 02:52:00,67.0,63.0,30.05,North,0,0.0,0.0,86,0.00,,,0.00,,2013-08-12 06:52:00,
2013-08-12 03:01:00,66.0,62.0,30.03,North,0,0.0,0.0,87,0.00,,,0.00,,2013-08-12 07:01:00,
2013-08-12 03:12:00,66.0,62.0,30.03,North,0,0.0,0.0,87,0.00,,,0.00,,2013-08-12 07:12:00,
2013-08-12 03:22:00,66.0,62.0,30.03,North,0,0.0,0.0,87,0.00,,,0.00,,2013-08-12 07:22:00,
2013-08-12 03:33:00,65.0,61.0,30.05,North,0,0.0,0.0,87,0.00,,,0.00,,2013-08-12 07:33:00,
2013-08-12 03:43:00,65.0,61.0,30.05,North,0,0.0,0.0,87,0.00,,,0.00,,2013-08-12 07:43:00,
2013-08-12 04:02:00,65.0,61.0,30.03,North,0,0.0,0.0,88,0.00,,,0.00,,2013-08-12 08:02:00,
2013-08-12 04:11:00,65.0,61.0,30.03,North,0,0.0,0.0,88,0.00,,,0.00,,2013-08-12 08:11:00,
2013-08-12 04:22:00,65.0,61.0,30.03,North,0,0.0,0.0,88,0.00,,,0.00,,2013-08-12 08:22:00,
2013-08-12 04:33:00,65.0,61.0,30.03,North,0,0.0,0.0,88,0.00,,,0.00,,2013-08-12 08:33:00,
2013-08-12 04:43:00,65.0,61.0,30.03,North,0,0.0,0.0,88,0.00,,,0.00,,2013-08-12 08:43:00,
2013-08-12 05:02:00,65.0,61.0,30.03,North,0,0.0,0.0,87,0.00,,,0.00,,2013-08-12 09:02:00,
2013-08-12 05:11:00,65.0,61.0,30.03,North,0,0.0,0.0,87,0.00,,,0.00,,2013-08-12 09:11:00,
2013-08-12 05:32:00,65.0,61.0,30.03,North,0,0.0,0.0,87,0.00,,,0.00,,2013-08-12 09:32:00,
2013-08-12 05:43:00,65.0,61.0,30.03,North,0,0.0,0.0,87,0.00,,,0.00,,2013-08-12 09:43:00,
2013-08-12 06:02:00,65.0,61.0,30.05,North,0,0.0,0.0,87,0.00,,,0.00,,2013-08-12 10:02:00,
2013-08-12 06:12:00,65.0,61.0,30.05,North,0,0.0,0.0,87,0.00,,,0.00,,2013-08-12 10:12:00,
2013-08-12 06:32:00,65.0,61.0,30.03,North,0,0.0,0.0,87,0.00,,,0.00,,2013-08-12 10:32:00,
2013-08-12 06:43:00,65.0,61.0,30.03,North,0,0.0,0.0,87,0.00,,,0.00,,2013-08-12 10:43:00,
2013-08-12 07:02:00,64.0,60.0,30.03,North,0,0.0,0.0,88,0.00,,,0.00,,2013-08-12 11:02:00,
2013-08-12 07:12:00,65.0,61.0,30.05,North,0,0.0,0.0,88,0.00,,,0.00,,2013-08-12 11:12:00,
2013-08-12 07:32:00,65.0,61.0,30.05,North,0,0.0,0.0,88,0.00,,,0.00,,2013-08-12 11:32:00,
2013-08-12 07:42:00,65.0,62.0,30.05,North,0,0.0,0.0,89,0.00,,,0.00,,2013-08-12 11:42:00,
2013-08-12 07:52:00,65.0,62.0,30.05,North,0,0.0,0.0,89,0.00,,,0.00,,2013-08-12 11:52:00,
2013-08-12 08:02:00,65.0,62.0,30.05,North,0,0.0,0.0,89,0.00,,,0.00,,2013-08-12 12:02:00,
2013-08-12 08:11:00,66.0,63.0,30.05,North,0,0.0,0.0,90,0.00,,,0.00,,2013-08-12 12:11:00,
2013-08-12 09:11:00,69.0,66.0,30.03,North,0,0.0,0.0,89,0.00,,,0.00,,2013-08-12 13:11:00,
2013-08-12 09:22:00,69.0,66.0,30.03,North,0,0.0,0.0,89,0.00,,,0.00,,2013-08-12 13:22:00,
2013-08-12 09:43:00,71.0,66.0,30.05,North,0,0.0,0.0,83,0.00,,,0.00,,2013-08-12 13:43:00,
2013-08-12 09:53:00,71.0,66.0,30.05,North,0,0.0,0.0,83,0.00,,,0.00,,2013-08-12 13:53:00,
2013-08-12 10:02:00,71.0,66.0,30.05,North,0,0.0,0.0,83,0.00,,,0.00,,2013-08-12 14:02:00,
2013-08-12 10:11:00,71.0,66.0,30.05,North,0,0.0,0.0,83,0.00,,,0.00,,2013-08-12 14:11:00,
2013-08-12 10:32:00,74.0,66.0,30.03,North,0,0.0,0.0,77,0.00,,,0.00,,2013-08-12 14:32:00,
2013-08-12 10:42:00,74.0,66.0,30.03,North,0,0.0,0.0,77,0.00,,,0.00,,2013-08-12 14:42:00,
2013-08-12 10:53:00,75.0,67.0,30.03,North,0,0.0,0.0,76,0.00,,,0.00,,2013-08-12 14:53:00,
2013-08-12 11:02:00,75.0,67.0,30.03,North,0,0.0,0.0,76,0.00,,,0.00,,2013-08-12 15:02:00,
2013-08-12 11:11:00,77.0,68.0,30.03,North,0,0.0,0.0,73,0.00,,,0.00,,2013-08-12 15:11:00,
2013-08-12 11:43:00,80.0,68.0,30.03,North,0,0.0,0.0,68,0.00,,,0.00,,2013-08-12 15:43:00,
2013-08-12 12:11:00,82.0,69.0,30.01,North,0,0.0,0.0,66,0.00,,,0.00,,2013-08-12 16:11:00,
2013-08-12 12:22:00,83.0,70.0,30.01,North,0,0.0,0.0,66,0.00,,,0.00,,2013-08-12 16:22:00,
2013-08-12 12:33:00,83.0,70.0,30.01,North,0,0.0,0.0,66,0.00,,,0.00,,2013-08-12 16:33:00,
2013-08-12 12:53:00,84.0,70.0,30.01,North,0,0.0,0.0,64,0.00,,,0.00,,2013-08-12 16:53:00,
2013-08-12 13:02:00,84.0,70.0,30.01,North,0,0.0,0.0,64,0.00,,,0.00,,2013-08-12 17:02:00,
2013-08-12 13:11:00,85.0,71.0,30.01,North,0,0.0,0.0,64,0.00,,,0.00,,2013-08-12 17:11:00,
2013-08-12 13:22:00,85.0,72.0,30.01,North,0,0.0,0.0,65,0.00,,,0.00,,2013-08-12 17:22:00,
2013-08-12 13:32:00,85.0,72.0,30.01,North,0,0.0,0.0,65,0.00,,,0.00,,2013-08-12 17:32:00,
2013-08-12 14:02:00,86.0,71.0,30.00,North,0,0.0,0.0,61,0.00,,,0.00,,2013-08-12 18:02:00,
2013-08-12 15:43:00,88.0,70.0,29.96,North,0,0.0,0.0,55,0.00,,,0.00,,2013-08-12 19:43:00,
2013-08-12 16:42:00,88.0,70.0,29.93,North,0,0.0,0.0,56,0.00,,,0.00,,2013-08-12 20:42:00,
2013-08-12 17:01:00,87.0,70.0,29.93,North,0,0.0,0.0,57,0.00,,,0.00,,2013-08-12 21:01:00,
2013-08-12 17:12:00,87.0,70.0,29.93,North,0,0.0,0.0,58,0.00,,,0.00,,2013-08-12 21:12:00,
2013-08-12 17:22:00,88.0,71.0,29.93,North,0,0.0,0.0,58,0.00,,,0.00,,2013-08-12 21:22:00,
2013-08-12 17:32:00,88.0,71.0,29.93,North,0,0.0,0.0,58,0.00,,,0.00,,2013-08-12 21:32:00,
2013-08-12 17:43:00,88.0,70.0,29.92,North,0,0.0,0.0,55,0.00,,,0.00,,2013-08-12 21:43:00,
2013-08-12 18:11:00,87.0,69.0,29.92,North,0,0.0,0.0,56,0.00,,,0.00,,2013-08-12 22:11:00,
2013-08-12 18:20:00,85.0,71.0,29.91,North,0,0.0,0.0,64,0.00,,,0.00,,2013-08-12 22:20:00,
2013-08-12 18:32:00,85.0,71.0,29.91,North,0,0.0,0.0,64,0.00,,,0.00,,2013-08-12 22:32:00,
2013-08-12 18:43:00,85.0,71.0,29.91,North,0,0.0,0.0,64,0.00,,,0.00,,2013-08-12 22:43:00,
2013-08-12 18:53:00,85.0,71.0,29.91,North,0,0.0,0.0,64,0.00,,,0.00,,2013-08-12 22:53:00,
2013-08-12 19:02:00,85.0,71.0,29.91,North,0,0.0,0.0,64,0.00,,,0.00,,2013-08-12 23:02:00,
2013-08-12 19:11:00,85.0,71.0,29.91,North,0,0.0,0.0,64,0.00,,,0.00,,2013-08-12 23:11:00,
2013-08-12 19:54:00,81.0,70.0,29.88,North,0,0.0,0.0,69,0.00,,,0.00,,2013-08-12 23:54:00,
2013-08-12 20:03:00,81.0,70.0,29.88,North,0,0.0,0.0,69,0.00,,,0.00,,2013-08-13 00:03:00,
2013-08-12 20:12:00,81.0,70.0,29.88,North,0,0.0,0.0,69,0.00,,,0.00,,2013-08-13 00:12:00,
2013-08-12 20:24:00,81.0,70.0,29.88,North,0,0.0,0.0,69,0.00,,,0.00,,2013-08-13 00:24:00,
2013-08-12 20:54:00,78.0,69.0,29.88,North,0,0.0,0.0,75,0.00,,,0.00,,2013-08-13 00:54:00,
2013-08-12 21:23:00,75.0,68.0,29.90,North,0,0.0,0.0,79,0.00,,,0.00,,2013-08-13 01:23:00,
2013-08-12 21:42:00,75.0,69.0,29.88,North,0,0.0,0.0,81,0.00,,,0.00,,2013-08-13 01:42:00,
2013-08-12 21:55:00,74.0,68.0,29.88,North,0,0.0,0.0,83,0.00,,,0.00,,2013-08-13 01:55:00,
2013-08-12 22:22:00,73.0,69.0,29.88,North,0,0.0,0.0,86,0.02,,,0.02,,2013-08-13 02:22:00,
2013-08-12 22:43:00,73.0,69.0,29.88,North,0,0.0,0.0,87,0.02,,,0.02,,2013-08-13 02:43:00,
2013-08-12 22:52:00,72.0,68.0,29.88,North,0,0.0,0.0,88,0.02,,,0.02,,2013-08-13 02:52:00,
2013-08-12 23:11:00,72.0,68.0,29.88,North,0,0.0,0.0,88,0.02,,,0.02,,2013-08-13 03:11:00,
2013-08-12 23:22:00,72.0,68.0,29.88,North,0,0.0,0.0,88,0.02,,,0.02,,2013-08-13 03:22:00,
2013-08-12 23:54:00,71.0,68.0,29.87,North,0,0.0,0.0,90,0.04,,,0.06,,2013-08-13 03:54:00,